SCP
0 0 0 0 0 0 0 0 0 0 0 0 0 0 1 1 1 1 1 1 1 2 3 3 3 3 3 2 2 2 3 4 4 4 4 4 4 3 3 3 3 3 2 2 2 1 2 2 2
0 0 0 0 0 0 0 0 1 0 0 0 0 1 1 1 1 1 1 1 1 2 2 3 4 3 3 2 2 2 3 4 4 4 4 4 4 4 3 3 3 3 2 2 2 2 2 2 3
0 0 0 0 0 0 0 1 1 1 0 0 1 1 1 1 1 1 1 1 1 1 2 3 4 3 3 3 2 2 3 3 4 4 4 5 5 4 3 3 3 3 3 2 2 2 2 2 3
0 0 0 0 0 1 1 1 1 0 0 0 1 1 2 2 1 1 1 1 1 1 2 3 4 3 3 3 2 2 2 3 3 3 4 4 4 4 3 3 3 3 3 3 2 2 2 2 3
0 0 0 0 0 1 1 1 1 0 0 1 1 1 2 2 2 1 1 1 1 2 3 4 4 3 3 3 3 2 2 3 3 2 2 3 3 3 3 3 3 3 3 3 3 3 2 2 2
0 0 0 0 1 1 1 1 1 1 1 1 1 1 2 2 2 2 2 2 2 2 3 4 4 3 3 3 3 3 3 3 3 2 2 2 2 3 3 3 3 3 3 3 3 3 3 2 2
0 0 0 0 1 1 1 1 1 1 1 1 2 2 2 3 3 2 2 2 3 3 4 4 4 3 3 3 3 3 3 3 3 2 2 2 2 2 2 3 3 3 3 3 3 4 3 3 3
0 0 0 0 1 1 1 1 1 1 1 2 2 2 3 3 3 3 3 3 4 4 4 3 3 3 3 3 3 4 4 3 3 2 2 2 2 2 2 3 3 3 3 2 3 3 3 3 3
0 0 0 0 1 1 1 1 1 1 2 2 2 2 3 3 4 4 4 4 5 5 4 3 3 3 3 3 4 4 4 3 3 3 3 3 3 3 3 3 3 3 2 2 2 2 3 3 3
0 0 0 0 1 1 1 1 1 1 1 2 2 2 3 3 4 4 4 4 5 6 5 4 3 3 3 3 4 4 4 3 3 3 3 3 4 5 5 4 4 3 3 3 3 3 3 3 3
0 0 0 1 1 1 1 1 1 1 1 2 2 2 3 3 3 3 3 4 5 6 6 5 4 3 3 4 4 4 4 4 3 3 3 4 4 5 5 5 5 4 4 4 4 4 3 3 3
0 0 0 1 1 1 1 1 1 1 2 1 2 3 3 3 3 3 4 4 4 5 6 6 5 4 4 4 4 4 4 4 4 3 3 4 4 4 4 5 5 5 5 5 4 4 4 4 4
0 0 1 1 1 1 1 1 1 1 1 1 2 3 4 4 4 5 5 4 4 4 5 6 6 5 4 5 5 4 4 4 4 4 4 4 4 4 4 4 4 4 4 4 4 4 4 4 4
1 1 1 1 1 1 1 1 1 1 1 1 2 3 4 5 5 6 6 5 4 4 4 5 5 4 5 5 5 5 4 4 4 4 4 4 4 4 4 5 4 3 3 3 3 3 3 3 3
1 1 1 1 1 0 1 1 1 1 1 2 2 2 3 4 5 5 5 4 3 3 4 4 4 4 5 5 5 5 4 4 4 4 5 5 5 5 5 5 4 3 2 2 2 2 3 3 2
0 0 0 0 0 0 0 1 1 1 2 2 2 2 2 2 3 4 4 3 3 3 4 4 4 4 4 5 5 5 5 5 5 5 6 5 5 5 5 5 4 4 3 3 3 3 3 2 2
0 0 0 0 0 1 1 1 1 2 2 2 2 2 2 2 3 4 4 3 3 4 4 5 5 5 4 4 4 5 5 6 6 6 6 5 5 5 4 4 4 3 3 3 3 3 3 3 2
0 0 0 0 1 1 1 2 1 1 1 2 2 2 2 2 3 4 4 4 4 4 5 5 5 6 6 5 4 5 5 6 6 6 5 5 5 4 3 3 3 3 3 3 3 3 3 3 2
0 0 0 1 1 1 2 2 1 1 1 1 2 2 2 2 3 3 3 4 4 4 4 5 5 5 6 5 5 5 4 4 4 4 5 5 5 4 3 2 2 3 3 4 4 3 3 2 2
0 0 1 1 1 1 1 1 1 1 1 1 1 2 2 2 2 2 2 3 4 4 5 5 5 5 5 5 5 5 5 5 4 4 4 5 4 4 3 2 2 3 4 4 3 3 3 2 2
0 0 1 1 1 1 1 1 1 1 1 1 1 1 2 2 2 2 2 2 3 4 4 5 5 5 5 5 5 5 5 5 4 4 4 4 3 3 3 3 3 3 3 3 3 3 2 2 2
1 1 1 1 0 0 0 1 1 1 1 1 1 1 1 2 2 2 2 2 3 3 4 5 6 5 5 5 5 5 5 5 5 5 4 4 3 3 3 3 3 4 4 3 3 2 2 2 2
1 1 0 0 0 0 0 1 1 1 1 1 1 1 1 1 2 2 2 2 2 3 4 5 6 6 5 5 5 5 4 4 4 5 5 4 4 3 3 3 4 4 4 3 3 2 2 2 2
0 0 0 0 0 0 1 1 1 1 1 1 1 1 1 1 1 2 2 2 2 2 3 5 6 6 5 5 5 5 4 4 4 4 5 5 4 4 3 3 3 3 3 3 3 3 2 2 2
0 0 0 0 0 0 1 1 1 1 1 1 1 1 1 1 2 2 2 1 1 2 3 5 6 6 5 5 5 4 5 4 4 4 5 5 5 4 3 3 3 3 3 3 3 3 3 2 2
0 0 0 0 0 0 0 1 1 1 1 1 1 1 1 1 2 2 2 1 1 2 3 5 6 6 5 5 4 4 5 5 4 4 4 5 5 4 4 4 3 3 3 2 3 3 2 2 2
0 0 0 0 0 0 0 1 1 1 1 1 1 1 1 1 1 1 1 1 1 1 2 4 6 6 6 5 4 4 4 5 5 4 4 4 4 3 3 3 3 3 2 2 2 2 2 2 2
0 0 0 0 0 0 0 1 1 1 1 1 1 1 1 1 0 1 1 1 1 1 2 3 5 7 7 5 5 5 5 5 5 5 5 4 3 2 2 2 2 2 2 2 2 2 2 1 2
0 0 1 0 0 0 0 0 1 1 1 1 0 0 0 0 0 0 1 1 2 2 2 3 4 6 7 6 6 6 6 5 5 5 4 4 3 2 2 2 2 2 2 1 1 1 1 1 1
0 0 1 0 0 0 0 0 1 1 0 0 0 0 0 0 0 0 1 2 3 3 3 3 4 6 7 7 7 7 6 5 4 4 3 3 3 2 2 1 1 1 1 1 1 1 1 1 1
Wind_Speed
8 7 6 6 8 4 3 5 4 4 4 5 4 3 4 5 5 5 6 8 10 12 15 16 14 13 12 12 11 11 11 11 10 10 10 11 11 11 11 10 9 9 8 8 7 7 6 6 5
5 5 6 7 6 2 4 5 4 5 5 4 3 2 2 4 5 5 6 9 11 12 14 14 14 12 12 12 11 11 11 10 10 10 9 10 10 10 10 10 9 9 8 8 7 7 6 6 6
5 6 6 5 2 1 4 5 4 4 3 2 2 2 3 4 4 4 6 10 11 12 12 13 14 12 11 11 11 10 10 10 10 9 9 9 9 9 9 9 9 8 8 8 7 7 7 6 6
5 6 6 5 1 3 3 3 3 2 2 2 1 3 3 5 3 5 9 10 11 11 12 14 12 11 10 10 10 10 10 9 9 9 9 8 8 8 8 8 8 8 8 8 7 7 7 7 7
6 6 6 4 2 2 2 2 2 3 3 3 2 2 4 4 5 7 9 10 10 10 10 14 12 10 10 10 10 9 9 8 8 8 8 8 8 8 8 8 8 8 8 8 7 7 7 7 8
6 6 5 3 3 3 1 2 2 2 2 3 2 1 4 5 5 7 9 9 9 9 10 12 13 11 10 10 9 8 8 8 7 7 7 7 7 7 7 8 8 8 8 8 8 8 8 8 8
6 5 3 2 3 3 2 2 3 3 2 4 4 1 4 6 5 7 8 8 8 8 8 9 11 11 11 9 8 8 7 7 7 6 6 6 6 7 7 7 8 8 8 8 9 9 9 9 9
6 5 4 3 2 2 2 1 2 4 3 4 3 2 3 6 7 7 7 7 7 7 7 7 7 8 8 9 9 8 7 7 7 6 7 7 7 8 7 8 7 7 7 7 7 7 8 9 9
7 7 2 1 1 1 1 1 2 2 1 1 2 4 5 7 8 7 7 6 6 6 5 6 6 6 6 6 8 8 8 7 7 8 8 8 6 6 7 6 4 6 6 7 7 7 8 9 10
6 5 1 3 3 2 2 2 2 1 1 2 2 4 5 7 6 6 6 6 6 5 5 5 5 5 5 4 5 5 5 5 6 4 5 5 4 4 4 3 5 6 7 8 8 9 9 10 7
5 4 3 2 2 2 2 3 3 2 3 5 4 3 4 5 5 4 4 4 4 4 4 4 4 4 4 3 3 2 2 3 4 4 4 4 3 3 3 2 4 6 8 7 6 8 7 6 5
4 4 4 3 2 2 2 2 3 5 4 5 4 3 3 3 3 3 2 2 2 3 3 3 3 3 2 2 1 2 2 2 2 3 4 3 2 3 2 3 3 4 3 4 5 4 5 6 6
5 3 2 2 2 0 0 1 2 4 4 5 5 5 5 4 3 3 2 2 2 2 2 3 3 3 2 2 2 1 2 2 2 2 3 4 3 3 3 3 3 4 3 3 4 4 5 5 6
2 3 3 2 2 2 2 1 1 3 4 4 5 5 5 5 4 3 2 1 1 1 1 1 3 4 3 2 2 2 1 1 3 2 3 3 3 2 3 4 4 4 3 3 4 5 5 5 5
4 4 4 2 2 3 4 2 3 4 3 5 6 6 6 6 6 5 3 2 2 1 1 1 3 3 3 3 3 2 2 2 3 2 2 3 3 3 4 4 4 3 4 4 5 5 5 5 5
7 7 4 4 1 2 6 3 6 3 3 5 6 6 6 6 6 5 4 3 2 1 1 0 0 2 2 2 2 2 2 2 2 2 2 3 4 4 4 4 4 3 4 3 3 4 4 4 5
7 4 2 2 1 1 3 3 5 3 3 5 5 6 6 6 6 6 5 4 3 2 2 1 0 1 1 1 2 2 2 2 2 2 2 2 4 4 4 3 3 4 3 3 4 3 4 5 5
4 5 3 1 2 1 1 3 4 3 3 4 5 5 5 6 6 6 6 5 4 3 2 2 1 1 1 1 1 1 1 2 2 2 2 3 4 4 4 3 3 3 3 3 3 4 4 4 4
6 6 4 1 2 1 2 3 3 2 2 3 4 4 4 5 6 5 5 5 4 3 2 2 1 1 0 0 1 1 1 2 2 2 2 3 3 4 4 3 3 3 3 4 5 4 4 4 3
5 6 3 1 1 2 2 2 3 2 2 3 3 3 3 4 4 4 5 5 5 3 2 2 1 1 1 1 2 2 2 3 2 2 2 3 3 4 3 3 3 3 3 4 4 4 4 3 2
4 5 5 4 2 5 5 5 5 4 3 3 3 3 3 3 3 3 4 5 5 4 3 3 2 2 2 3 2 2 2 3 2 2 1 2 3 3 3 3 4 4 4 3 4 4 5 4 4
5 4 5 6 8 5 6 5 5 4 3 2 2 2 3 3 3 4 4 4 4 4 3 3 2 3 3 4 3 4 3 3 3 2 2 3 3 3 3 4 3 4 3 4 4 3 4 5 4
6 6 7 8 9 8 5 7 3 3 1 2 2 3 3 3 3 3 4 4 4 4 4 3 3 3 3 4 4 4 3 3 2 2 2 3 2 3 3 3 3 3 3 4 4 3 4 4 5
4 6 6 8 8 6 2 6 1 3 4 4 3 3 4 4 4 3 3 4 4 4 4 4 4 4 4 4 4 4 4 4 3 3 2 2 2 2 2 3 3 3 3 4 4 4 4 4 5
4 7 4 5 4 1 2 4 4 5 4 4 4 3 3 3 4 4 4 4 4 5 5 5 5 4 4 4 4 4 4 4 3 3 2 3 2 2 2 3 3 3 3 4 4 4 4 5 5
4 7 6 6 6 4 1 2 5 5 5 4 4 3 2 3 4 4 4 4 4 5 5 5 5 5 4 4 3 3 4 3 2 3 3 3 3 3 3 4 4 4 5 4 4 4 4 4 5
4 4 5 7 7 6 1 2 5 3 4 5 5 3 3 4 5 5 4 5 5 5 5 5 5 4 4 4 3 3 3 3 2 3 3 3 3 3 4 4 4 4 4 4 4 4 4 4 5
5 5 4 6 6 6 3 2 4 5 6 6 5 4 4 4 5 6 4 5 4 4 4 4 4 4 4 3 3 3 3 2 2 3 3 3 3 4 4 4 4 4 4 4 4 4 3 4 5
3 2 5 5 5 6 5 4 7 6 6 6 6 5 5 5 5 6 5 4 4 4 4 4 4 4 4 4 3 4 4 3 3 2 2 3 3 4 4 4 4 4 4 4 4 4 4 5 5
4 5 5 5 5 4 5 3 7 6 6 6 6 6 6 6 6 6 5 5 4 5 4 4 4 4 4 4 3 3 4 3 3 2 3 3 4 4 4 4 4 4 4 4 4 5 5 5 6
Wind_Direction
194 205 227 236 235 213 92 75 50 50 53 31 13 10 27 23 7 48 82 135 140 143 140 150 152 153 155 155 154 153 152 151 152 155 159 162 164 165 167 169 173 177 179 181 182 184 187 188 189
190 211 233 240 254 171 98 64 52 33 30 10 39 47 38 53 46 77 114 135 145 143 145 151 148 155 157 157 156 155 155 156 156 157 159 163 166 168 171 175 179 182 185 187 190 192 197 198 199
194 233 256 248 263 13 79 66 47 44 35 6 39 37 21 32 58 87 114 142 148 146 146 139 150 156 158 160 159 158 158 159 160 162 162 165 169 173 177 181 185 187 191 194 197 199 201 203 206
212 220 235 250 157 63 50 44 14 19 35 12 8 83 74 41 46 95 127 147 150 148 146 138 152 155 158 160 161 161 162 163 166 169 170 171 173 176 181 188 192 193 197 201 204 205 208 212 214
236 246 226 204 146 97 65 26 330 339 357 0 346 56 80 68 80 114 137 148 149 146 142 139 151 155 159 160 159 160 160 163 168 173 177 181 184 186 189 192 198 204 208 212 213 214 218 223 223
231 242 238 180 139 121 61 354 314 312 352 1 348 14 81 102 118 131 140 147 144 141 142 139 152 158 160 161 159 159 161 164 169 174 180 186 191 195 198 201 206 213 217 220 223 223 224 232 235
263 261 265 228 158 143 66 0 334 331 345 352 339 345 106 113 116 131 137 141 138 143 143 147 158 162 162 160 160 160 161 164 172 178 184 191 196 202 207 209 215 219 223 227 229 232 234 236 241
276 263 229 223 205 131 73 18 339 330 354 10 330 332 66 108 125 133 135 138 139 143 147 151 161 159 166 166 163 164 165 168 176 184 191 198 203 207 211 218 217 226 231 234 238 242 245 244 243
252 249 227 216 247 98 92 326 9 340 6 9 355 10 53 112 134 141 139 140 140 144 151 158 163 163 174 173 161 174 176 176 189 193 192 208 217 215 208 219 205 229 238 240 243 245 248 249 237
247 257 340 344 327 327 352 346 349 291 50 37 53 68 94 131 144 150 149 152 151 154 159 162 170 169 178 176 167 189 196 183 206 208 202 216 227 237 240 173 204 231 241 243 244 245 243 244 238
257 287 324 319 330 306 308 356 4 326 346 3 6 50 110 135 149 157 159 160 157 155 158 167 174 179 186 181 182 194 212 197 210 214 218 224 233 234 242 229 210 225 235 244 234 236 244 252 253
260 281 293 298 312 286 304 343 25 9 356 3 16 52 98 118 131 140 157 158 152 152 159 171 179 177 195 209 206 213 221 214 223 210 233 229 234 246 253 251 259 248 243 253 260 262 259 261 254
242 272 293 285 255 237 82 0 22 17 31 41 62 76 79 82 91 101 115 126 135 139 162 171 181 169 170 192 241 233 244 245 237 234 226 240 240 248 255 262 263 264 265 258 262 266 270 268 259
305 282 269 245 196 169 139 83 59 52 63 76 80 77 76 70 66 67 58 61 86 123 159 167 175 162 169 190 201 227 245 253 259 241 235 239 253 261 260 254 255 259 265 278 272 265 264 261 265
248 240 213 176 194 173 197 121 69 61 78 91 90 85 78 65 59 53 40 22 32 62 145 169 170 164 179 202 206 214 220 237 251 248 237 240 256 262 263 260 251 259 263 260 261 267 268 265 262
224 232 217 120 145 172 246 104 69 75 107 94 88 85 79 69 59 56 48 35 38 51 91 109 132 148 170 192 208 222 226 237 246 249 245 246 255 262 265 270 270 271 269 269 272 273 273 272 271
218 256 299 127 91 216 255 87 87 88 102 93 84 80 78 74 61 52 45 45 40 44 61 67 74 139 182 203 216 232 227 243 253 260 273 268 260 258 259 271 284 277 278 282 280 278 278 276 278
312 297 284 280 84 179 156 111 109 108 101 94 89 82 73 66 61 54 44 42 49 47 47 44 68 56 287 223 222 242 242 252 263 267 281 276 269 264 264 258 269 279 281 280 280 280 270 274 276
301 290 288 4 93 223 170 133 120 127 119 98 90 80 69 66 66 56 39 31 40 43 38 46 41 55 292 268 271 271 269 271 265 268 284 275 278 273 259 272 265 267 272 276 276 275 270 272 281
275 280 294 101 111 260 188 152 131 121 98 80 80 72 53 53 57 43 31 25 24 28 21 29 42 357 291 313 285 278 287 273 272 290 287 285 284 277 257 260 266 266 267 263 273 274 281 281 280
285 299 314 303 251 210 215 192 159 137 114 87 66 49 35 34 25 19 16 15 13 13 4 11 0 323 314 301 289 300 280 272 274 287 282 290 283 275 278 269 274 274 266 270 269 264 266 276 275
304 338 300 274 260 232 234 262 150 160 140 75 30 25 18 11 12 13 7 6 4 0 1 355 348 333 318 301 305 299 292 290 297 294 299 287 282 290 280 275 275 271 273 271 263 268 272 268 273
329 317 284 270 263 263 234 270 130 142 35 23 6 354 8 5 357 4 359 359 2 359 355 348 340 320 310 299 292 288 290 293 299 297 291 284 294 289 286 275 275 273 277 282 279 273 273 271 273
308 282 246 244 250 251 304 286 26 60 356 352 357 0 354 351 345 345 350 357 1 355 348 340 332 318 309 297 295 289 293 293 295 292 292 280 273 276 289 277 276 278 281 274 274 274 269 275 276
307 300 270 246 242 306 39 288 39 46 19 356 345 350 340 328 333 329 337 349 351 350 345 339 334 322 315 302 295 293 293 282 279 284 287 292 295 294 309 301 288 285 277 272 272 269 274 268 265
327 314 323 310 313 323 264 305 68 55 32 18 7 6 2 336 344 337 340 343 340 341 342 337 328 323 318 314 311 302 293 285 291 293 295 294 298 311 317 301 295 292 285 280 278 273 269 267 268
319 335 335 286 282 282 290 113 118 63 24 20 14 12 3 349 346 339 339 334 333 334 334 333 332 331 327 322 320 300 291 293 300 294 287 295 300 295 300 296 292 289 287 282 276 277 277 275 271
345 335 289 289 307 300 299 349 30 23 6 4 3 358 348 342 340 338 337 337 333 327 326 326 327 331 329 325 320 321 304 289 288 300 325 315 307 306 299 292 289 293 294 286 281 281 284 283 279
350 344 323 303 304 303 314 36 46 12 2 356 354 352 347 343 338 334 335 337 331 330 326 332 329 325 323 325 326 320 308 297 289 295 309 308 303 299 298 301 299 298 296 294 285 285 289 286 288
4 354 333 315 316 291 297 51 61 18 10 358 355 354 346 338 334 339 348 340 335 337 337 333 327 329 322 321 320 314 307 302 297 304 309 310 309 306 311 306 300 299 300 295 285 285 287 289 289